{"data":{"norad_id":63498,"intl_designator":"2025-071F","name":"STARLINK-33833","alt_names":[],"object_type":"PAYLOAD","status":"ACTIVE","operator":null,"country":"US","launch_date":"2025-04-07","launch_site_code":"AFWTR","launch_vehicle":null,"mission":null,"orbit_class":"UNKNOWN","rcs_meters":null,"size_class":null,"mass_kg":null,"dimensions":null,"purposes":["comms"],"wikipedia_slug":null,"has_3d_model":false,"image_url":null,"decayed_at":null,"tle_current":{"epoch":"2026-09-20T10:53:30.436800Z","epoch_age_seconds":159739,"freshness":"FRESH","line1":"1 63498U 25071F   26263.45382450  .00010482  00000+0  34889-3 0  9994","line2":"2 63498  53.1606 314.2397 0001294  86.5785 273.5365 15.31717791 82606","mean_motion":15.31717791,"eccentricity":0.0001294,"inclination_deg":53.1606,"raan_deg":314.2397,"arg_perigee_deg":86.5785,"mean_anomaly_deg":273.5365,"bstar":0.00034889,"rev_number":8260,"period_min":94.012095991905,"perigee_km":469.8007238731,"apogee_km":471.57319951439,"semimajor_km":6848.8239616937,"source":"CELESTRAK","updated_at":"2026-09-21T09:00:35.014008Z"}}}